Regional Weather Roundup
Issued by NWS

Home | Current Version | Previous Version | Text Only | Print | Product List | Glossary Off
Versions: 1 2 3 4 5 6 7 8 9 10 11 12 13 14 15 16 17 18 19 20 21 22 23 24 25 26 27 28

000
ASUS45 KCYS 042010
RWRWY

WYOMING REGIONAL WEATHER ROUNDUP
NATIONAL WEATHER SERVICE CHEYENNE WY
200 PM MDT WED MAY 04 2016

NOTE:  "FAIR" INDICATES FEW OR NO CLOUDS BELOW 12,000 FEET
WITH NO SIGNIFICANT WEATHER AND/OR OBSTRUCTIONS TO VISIBILITY.

WYZ001-042100-
YELLOWSTONE NATIONAL PARK

CITY           SKY/WX    TMP DP  RH WIND       PRES   REMARKS
LK YELLOWSTONE   N/A     62  23  22 VRB3      30.27F
W YELLOWSTONE  NOT AVBL

$$
WYZ002>013-054>058-071-098>099-042100-
NORTHERN WYOMING

CITY           SKY/WX    TMP DP  RH WIND       PRES   REMARKS
JACKSON        SUNNY     68  25  19 S6G21     30.19F
CODY           FAIR      75  28  17 SE7       30.07F
GREYBULL       FAIR      80  20  10 VRB6      30.03F
WORLAND        FAIR      77  29  17 VRB3      30.05F
SHERIDAN       FAIR      79  38  22 E8        30.03F
BUFFALO        FAIR      75  34  22 VRB7G16   30.09F
GILLETTE       FAIR      75  35  23 SW9       30.07F
HULETT         FAIR      73  36  25 SW8       30.11S
NEWCASTLE      FAIR      73  32  21 SE10G16   30.13F

$$
WYZ014>020-022>026-101>103-042100-
CENTRAL WYOMING

CITY           SKY/WX    TMP DP  RH WIND       PRES   REMARKS
BIG PINEY      FAIR      70  21  15 SW14G22   30.22F
PINEDALE       FAIR      66  21  18 S14G20    30.23F
DUBOIS         FAIR      66  14  13 W13G25    30.21S
LANDER         FAIR      72  36  26 CALM      30.12F
RIVERTON       FAIR      72  27  18 E6        30.14F
CASPER         FAIR      75  30  19 W10G21    30.14F
DOUGLAS        FAIR      73  35  25 CALM      30.15F

$$
WYZ021-027>030-104>119-042100-
SOUTHERN WYOMING

CITY           SKY/WX    TMP DP  RH WIND       PRES   REMARKS
EVANSTON       FAIR      70  25  18 SW17G24   30.21F
KEMMERER         N/A     68  21  17 SW10      30.23F
FORT BRIDGER   FAIR      69  20  15 S3        30.25F
ROCK SPRINGS   FAIR      68  26  20 VRB5      30.21F
DIXON          FAIR      71  26  18 SW12G21   30.26F
RAWLINS        FAIR      70  20  15 SW18      30.24F
SARATOGA       FAIR      68  21  17 N5        30.25F
LARAMIE        FAIR      64  27  24 NW9       30.26F
CHEYENNE       FAIR      69  27  20 E3        30.22F
TORRINGTON     FAIR      73  40  30 SE7       30.13F
PINE BLUFFS    FAIR      70  34  26 CALM      30.19F

$$




USA.gov is the U.S. government's official web portal to all federal, state and local government web resources and services.